Regional Weather Roundup
Issued by NWS Upton, NY

Current Version | Previous Version | Graphics & Text | Print | Product List | Glossary Off
Versions: 1 2 3 4 5 6 7 8 9 10 11 12 13 14 15 16 17 18 19 20 21 22 23 24 25 26 27 28 29 30 31 32 33 34 35 36 37 38 39 40 41 42 43 44 45 46 47 48 49 50

000
ASUS41 KOKX 022304
RWROKX

REGIONAL WEATHER ROUNDUP
NATIONAL WEATHER SERVICE NEW YORK NY
700 PM EDT SUN AUG 02 2015

NOTE: "FAIR" INDICATES FEW OR NO CLOUDS BELOW 12,000 FEET WITH NO
SIGNIFICANT WEATHER AND/OR OBSTRUCTIONS TO VISIBILITY.

NYZ071-072-176-178-NJZ106-104-030000-
NEW YORK CITY METRO AREA


CITY           SKY/WX    TMP DP  RH WIND       PRES   REMARKS
CENTRAL PARK   SUNNY     83  58  42 VRB3      29.90F
LAGUARDIA APRT MOSUNNY   84  60  44 S10       29.86F
KENNEDY INTL   MOSUNNY   82  64  54 S14G20    29.88F
NEWARK/LIBERTY MOSUNNY   88  49  25 SW12      29.86F
BRNX BOT. GARD   N/A     82  59  44 SE13      29.89R
TETERBORO      SUNNY     84  56  38 S10       29.85F
$$

NYZ177-179-078>081-030000-
LONG ISLAND NEW YORK

CITY           SKY/WX    TMP DP  RH WIND       PRES   REMARKS
FARMINGDALE    SUNNY     81  63  54 S12       29.88F
ISLIP          MOSUNNY   80  63  55 S9        29.87F
SHIRLEY        SUNNY     80  64  58 S9        29.90F
WESTHAMPTON    SUNNY     78  68  71 S7        29.91F
MONTAUK POINT    N/A     78  68  71 VRB5      29.91F
$$

NYZ052-065-067-030000-
HUDSON VALLEY

CITY           SKY/WX    TMP DP  RH WIND       PRES   REMARKS
WHITE PLAINS   MOSUNNY   81  58  45 S7        29.87F
NEWBURGH       MOSUNNY   82  57  42 W14       29.88F
MONTGOMERY     SUNNY     83  57  41 SW10      29.86F
POUGHKEEPSIE   SUNNY     86  53  32 SW9G18    29.84F
ALBANY         MOSUNNY   85  56  37 S12       29.82R
$$

NJZ001-105-106-008-010-013-015-019>022-104-030000-
NEW JERSEY

CITY           SKY/WX    TMP DP  RH WIND       PRES   REMARKS
NEWARK/LIBERTY MOSUNNY   88  49  25 SW12      29.86F
TETERBORO      SUNNY     84  56  38 S10       29.85F
CALDWELL       MOSUNNY   87  51  28 VRB6      29.86F
MORRISTOWN     SUNNY     88  46  23 W13G18    29.87F
SOMERVILLE     SUNNY     85  53  33 VRB3      29.85F
SUSSEX         SUNNY     81  56  42 SW7       29.87F
ANDOVER          N/A     80  59  48 SW5       29.89F
TRENTON        SUNNY     85  52  32 SW7       29.87F
MILLVILLE      MOSUNNY   84  58  40 SW6       29.90S
ATLANTIC CITY  PTSUNNY   82  65  56 S7        29.90S
WRIGHTSTOWN    NOT AVBL
TOMS RIVER       N/A     88  48  25 SW7       29.89S
BELMAR         SUNNY     81  64  57 SE5       29.89F
$$

PAZ047>061-062-071-030000-
EASTERN PENNSYLVANIA

CITY           SKY/WX    TMP DP  RH WIND       PRES   REMARKS
PHILADELPHIA   PTSUNNY   88  52  29 SW10      29.88F
ALLENTOWN      SUNNY     84  57  39 S12G18    29.88F
SCRANTON       MOSUNNY   82  57  42 SW9       29.89R
$$

CTZ002-004>006-009-010-012-RIZ004-006-007-MAZ004-011-015-030000-
SOUTHERN NEW ENGLAND
 IN CT

CITY           SKY/WX    TMP DP  RH WIND       PRES   REMARKS
BRADLEY INTL   MOSUNNY   83  57  41 SW9       29.85F
HARTFORD       SUNNY     83  58  42 S12G18    29.85F
DANBURY        SUNNY     81  57  43 S8        29.89F
WTRBRY/OXFORD  MOSUNNY   81  61  50 S9        29.91F
BRIDGEPORT     SUNNY     83  62  49 S12       29.86F
MERIDEN        SUNNY     84  57  39 S7        29.87F
NEW HAVEN      SUNNY     81  64  56 SE6       29.87F
CHESTER        NOT AVBL
GROTON         SUNNY     74  66  76 S10       29.88F
WILLIMANTIC    SUNNY     82  57  42 S9        29.88F

 IN RI

CITY           SKY/WX    TMP DP  RH WIND       PRES   REMARKS
PROVIDENCE     MOSUNNY   80  59  48 SW10      29.89F
BLOCK ISLAND     N/A     75  70  83 S9        29.92F
WESTERLY       SUNNY     77  65  66 S9        29.91S

 IN MA

CITY           SKY/WX    TMP DP  RH WIND       PRES   REMARKS
BOSTON         MOSUNNY   84  54  35 SW17      29.85F
WORCESTER      SUNNY     77  56  48 S10       29.90F
WESTFIELD      SUNNY     82  55  39 S7        29.85S
PROVINCETOWN   CLEAR     75  57  53 SW13      29.88S
NANTUCKET      CLEAR     74  65  73 S6        29.92S
$$

ANZ330-335-338-340-345-350-353-355-030000-
COASTAL MARINE OBSERVATIONS


STATION/POSITION TIME  SKY/WX   TEMP    WIND        PRES    VSBY  WAVE
                                AIR SEA DIR/SP/G                  HT/PER
                 (UTC)          (F)     (DEG/KT/KT) (MB)    (MI)  (FT/S)
NY HARB ENTRANCE 2150            79 79  180/ 12/ 14 1012.0          3/ 8
4S FIRE IS       NOT AVBL
20S FIRE ISLAND  2150            78 78  180/  8/ 10 1012.5          3/ 8
GREAT SOUTH BAY  2200            77 82  200/ 10/ 12   N/A
23SW MTP         2250            77 76  200/ 10/ 10 1012.2          3/ 8
HUDSON CANYON    NOT AVBL
KINGS POINT      2200            81 73  190/ 11/ 13 1011.1
EXECUTION ROCKS  2200            80     190/  6/  8   N/A
CENTRAL LI SOUND NOT AVBL
EASTERN LI SOUND 2200            75 69  190/  8/ 10   N/A
ROBBINS REEF     2200            78     170/ 16/ 18 1010.5
$$


>>>>>>>>>>>>>>>>>>>>>>>>>>>> KEY <<<<<<<<<<<<<<<<<<<<<<<<<<<
>                                                          <
>     SKY/WX - SKY CONDITION/PRESENT WEATHER               <
>     TMP    - TEMPERATURE IN FAHRENHEIT                   <
>     DP     - DEWPOINT IN FAHRENHEIT                      <
>     RH     - RELATIVE HUMIDITY IN PERCENT                <
>     WIND   - DIRECTION AND SPEED IN MPH                  <
>     PRES   - MEAN SEA LEVEL PRESSURE IN INCHES OF HG     <
>     WCI    - WIND CHILL INDEX                            <
>     VSB    - VISIBILITY IN MILES                         <
>     HX     - HEAT INDEX                                  <
>     TC     - TEMPERATURE IN CELSIUS                      <
>     VRB    - VARIABLE WIND DIRECTION                     <
>                                                          <
>>>>>>>>>>>>>>>>>>>>>>>>>>>> KEY <<<<<<<<<<<<<<<<<<<<<<<<<<<





USA.gov is the U.S. government's official web portal to all federal, state and local government web resources and services.